Location: Hamilton
(37.7830°S, 175.2830°E)
Time: 02:20:24
(UTC+13:00)

Cosmos 968 Rocket - Pass Details

Date: 24 January 2019
Orbit: 742 x 770 km, 74.0° (Epoch: 22 February)

Event Time Altitude Azimuth Distance (km) Brightness Sun altitude
Exits shadow 23:08:51 65° 61° (ENE) 840 3.4 -23.9°
Maximum altitude 23:09:03 65° 75° (ENE) 836 3.4 -24.0°
Drops below altitude 10° 23:14:16 10° 156° (SSE) 2,322 6.3 -24.6°
Sets 23:16:41 0° 158° (SSE) 3,260 7.2 -24.8°
